Intelsat IS-16

operational
NORAD ID: 36397 Int'l Des: 2010-006 Owner: INTELU Country: US
HEOCIRCULARGSOGEO

Über Intelsat IS-16

Beschreibung wird geladen...

Live-Position

3D-Globus wird geladen...

Nächste Überflüge

Höhenverlauf

Altitude vs Time

uPlot chart will show altitude changes over time

Zweizeiliger Elementsatz

1 36397U 10006A 26062.57130065 .00000000 00000-0 00000-0 0 9998
2 36397 0.0243 132.7269 0002040 222.6355 295.4536 1.00268123 58594
Epoch: 3. März 2026 • Age: 28 hours

Aktueller Status

Höhe 35794.7 km
Geschwindigkeit 3.07 km/s
Subsatellitenpunkt 0.01°N, 76.16°W
Startdatum 12. Feb. 2010
Alter 16 years
Typ communications

Technische Details

Klassifizierung Payload
Masse 2056.00 kg
Trockenmasse 1145.00 kg
Gesamtmasse 2056.00 kg
Länge 4.10 m
Durchmesser 2.30 m
Spannweite 22.40 m
Form Box + 2 Pan
Hersteller OSCD
Bus-Typ OSC Star 2.4
Phasenstatus In Orbit
Besitzer/Staat INTELU/US

Große Konstellationen

Loading constellations...